| time (UTC) | temp F | wind direction | speed MPH | gust MPH | rain 1hr in | rain 24hr in | rain mn in | humidity % | barometer mb |
| 20260506102434 | 49 | 63 | 2.0 | 8.0 | 0.09 | 1.00 | 0.86 | 98 | 1010.6 |
| 20260506101946 | 49 | 80 | 3.0 | 8.0 | 0.09 | 1.00 | 0.86 | 98 | 1010.3 |
| 20260506101534 | 49 | 48 | 4.0 | 8.0 | 0.09 | 1.00 | 0.86 | 98 | 1009.6 |
| 20260506101435 | 49 | 57 | 4.0 | 8.0 | 0.09 | 1.00 | 0.86 | 98 | 1010.3 |
| 20260506101007 | 49 | 89 | 3.0 | 6.0 | 0.08 | 0.99 | 0.85 | 98 | 1010.4 |
| 20260506100429 | 49 | 36 | 3.0 | 10.0 | 0.08 | 0.99 | 0.85 | 98 | 1010.0 |
| 20260506100020 | 49 | 72 | 5.0 | 10.0 | 0.01 | 0.92 | 0.78 | 98 | 1010.2 |
| 20260506095939 | 49 | 69 | 4.0 | 10.0 | 0.01 | 0.92 | 0.78 | 98 | 1010.8 |
| 20260506095449 | 49 | 70 | 2.0 | 7.0 | 0.01 | 0.92 | 0.78 | 98 | 1009.8 |
| 20260506094932 | 49 | 63 | 4.0 | 7.0 | 0.01 | 0.92 | 0.78 | 98 | 1010.0 |
| 20260506094527 | 49 | 77 | 0.0 | 7.0 | 0.01 | 0.92 | 0.78 | 98 | 1009.9 |
| 20260506094422 | 49 | 61 | 1.0 | 7.0 | 0.01 | 0.92 | 0.78 | 98 | 1010.6 |
| 20260506093925 | 49 | 65 | 2.0 | 8.0 | 0.02 | 0.92 | 0.78 | 98 | 1009.9 |
| 20260506093437 | 49 | 30 | 1.0 | 9.0 | 0.04 | 0.92 | 0.78 | 98 | 1009.7 |
| 20260506093036 | 49 | 63 | 3.0 | 9.0 | 0.12 | 0.92 | 0.78 | 98 | 1008.6 |
| 20260506092947 | 49 | 259 | 5.0 | 9.0 | 0.15 | 0.92 | 0.78 | 98 | 1009.4 |
| 20260506092458 | 50 | 96 | 4.0 | 9.0 | 0.15 | 0.91 | 0.77 | 98 | 1010.1 |
| 20260506091944 | 50 | 30 | 4.0 | 10.0 | 0.16 | 0.91 | 0.77 | 98 | 1010.5 |
| 20260506091605 | 49 | 32 | 3.0 | 10.0 | 0.16 | 0.91 | 0.77 | 98 | 1009.8 |
| 20260506091425 | 50 | 62 | 4.0 | 8.0 | 0.16 | 0.91 | 0.77 | 98 | 1010.1 |
| 20260506090957 | 50 | 57 | 4.0 | 8.0 | 0.16 | 0.91 | 0.77 | 98 | 1010.0 |
| 20260506090428 | 50 | 56 | 5.0 | 10.0 | 0.16 | 0.91 | 0.77 | 98 | 1009.5 |
| 20260506090052 | 49 | 51 | 2.0 | 10.0 | 0.16 | 0.91 | 0.77 | 98 | 1008.9 |
| 20260506085929 | 50 | 68 | 3.0 | 10.0 | 0.16 | 0.91 | 0.77 | 98 | 1009.5 |
| 20260506085511 | 50 | 81 | 4.0 | 10.0 | 0.17 | 0.91 | 0.77 | 98 | 1009.5 |
| 20260506084951 | 50 | 53 | 3.0 | 11.0 | 0.17 | 0.91 | 0.77 | 98 | 1009.7 |
| 20260506084516 | 50 | 44 | 4.0 | 11.0 | 0.17 | 0.91 | 0.77 | 98 | 1009.2 |
| 20260506084438 | 50 | 115 | 5.0 | 11.0 | 0.17 | 0.91 | 0.77 | 98 | 1010.0 |
| 20260506083930 | 51 | 83 | 2.0 | 7.0 | 0.16 | 0.90 | 0.76 | 98 | 1010.6 |
| 20260506083441 | 51 | 91 | 3.0 | 10.0 | 0.14 | 0.88 | 0.74 | 98 | 1010.7 |
| 20260506083002 | 50 | 87 | 2.0 | 11.0 | 0.03 | 0.77 | 0.63 | 98 | 1010.0 |
| 20260506082923 | 51 | 94 | 3.0 | 11.0 | 0.03 | 0.77 | 0.63 | 98 | 1010.3 |
| 20260506082455 | 51 | 25 | 5.0 | 11.0 | 0.02 | 0.76 | 0.62 | 98 | 1009.7 |
| 20260506081925 | 51 | 54 | 4.0 | 12.0 | 0.01 | 0.75 | 0.61 | 98 | 1009.7 |
| 20260506081533 | 50 | 42 | 4.0 | 13.0 | 0.01 | 0.75 | 0.61 | 98 | 1008.8 |
| 20260506081431 | 51 | 74 | 6.0 | 13.0 | 0.01 | 0.75 | 0.61 | 98 | 1009.2 |
| 20260506080933 | 51 | 26 | 7.0 | 13.0 | 0.01 | 0.75 | 0.61 | 98 | 1008.3 |
| 20260506080425 | 51 | 101 | 6.0 | 10.0 | 0.01 | 0.75 | 0.61 | 98 | 1008.4 |
| 20260506073433 | 53 | 111 | 4.0 | 11.0 | 0.53 | 0.74 | 0.60 | 98 | 1008.2 |
| 20260506073037 | 52 | 51 | 3.0 | 10.0 | 0.56 | 0.74 | 0.60 | 98 | 1007.7 |
| 20260506072942 | 53 | 74 | 3.0 | 10.0 | 0.57 | 0.74 | 0.60 | 98 | 1008.4 |
| 20260506072425 | 53 | 351 | 4.0 | 10.0 | 0.59 | 0.74 | 0.60 | 98 | 1008.1 |
| 20260506071937 | 53 | 46 | 5.0 | 10.0 | 0.60 | 0.74 | 0.60 | 97 | 1007.7 |
| 20260506071544 | 53 | 22 | 3.0 | 11.0 | 0.60 | 0.74 | 0.60 | 98 | 1007.0 |
| 20260506071447 | 53 | 44 | 5.0 | 11.0 | 0.60 | 0.74 | 0.60 | 98 | 1007.8 |
| 20260506070930 | 53 | 340 | 7.0 | 11.0 | 0.60 | 0.74 | 0.60 | 97 | 1007.5 |
| 20260506070441 | 53 | 70 | 4.0 | 11.0 | 0.60 | 0.74 | 0.60 | 97 | 1007.5 |
| 20260506062422 | 56 | 40 | 6.0 | 11.0 | 0.01 | 0.15 | 0.01 | 97 | 1007.1 |
| 20260506061955 | 57 | 69 | 4.0 | 12.0 | 0.00 | 0.14 | 0.00 | 96 | 1007.3 |
| 20260506061533 | 57 | 67 | 7.0 | 12.0 | 0.00 | 0.14 | 0.00 | 96 | 1006.2 |
| 20260506061443 | 58 | 79 | 7.0 | 11.0 | 0.00 | 0.14 | 0.00 | 96 | 1007.1 |
| 20260506060931 | 59 | 103 | 4.0 | 11.0 | 0.00 | 0.14 | 0.00 | 96 | 1007.3 |
| 20260506060503 | 60 | 49 | 4.0 | 11.0 | 0.00 | 0.14 | 0.00 | 96 | 1007.2 |
| 20260506050937 | 69 | 233 | 4.0 | 8.0 | 0.00 | 0.14 | 0.00 | 98 | 1005.8 |
| 20260506050449 | 69 | 243 | 4.0 | 8.0 | 0.00 | 0.14 | 0.00 | 98 | 1005.7 |
| 20260506044945 | 69 | 238 | 4.0 | 8.0 | 0.00 | 0.14 | 0.14 | 98 | 1005.5 |
| 20260506044548 | 69 | 235 | 4.0 | 8.0 | 0.00 | 0.14 | 0.14 | 98 | 1004.7 |
| 20260506044425 | 69 | 242 | 4.0 | 8.0 | 0.00 | 0.14 | 0.14 | 98 | 1005.6 |
| 20260506043936 | 69 | 217 | 4.0 | 8.0 | 0.00 | 0.14 | 0.14 | 98 | 1005.6 |
| 20260506043427 | 69 | 231 | 4.0 | 6.0 | 0.00 | 0.14 | 0.14 | 98 | 1005.9 |
| 20260506043048 | 69 | 226 | 3.0 | 5.0 | 0.00 | 0.14 | 0.14 | 98 | 1005.2 |
| 20260506042927 | 69 | 235 | 4.0 | 6.0 | 0.00 | 0.14 | 0.14 | 98 | 1006.2 |
| 20260506042434 | 69 | 235 | 4.0 | 6.0 | 0.00 | 0.14 | 0.14 | 98 | 1006.2 |
| 20260506041928 | 69 | 231 | 3.0 | 4.0 | 0.00 | 0.14 | 0.14 | 98 | 1006.3 |
| 20260506041555 | 68 | 239 | 3.0 | 4.0 | 0.00 | 0.14 | 0.14 | 98 | 1005.4 |
| 20260506041427 | 68 | 217 | 3.0 | 4.0 | 0.00 | 0.14 | 0.14 | 98 | 1006.3 |
| 20260506040938 | 69 | 231 | 3.0 | 4.0 | 0.00 | 0.14 | 0.14 | 98 | 1006.3 |
| 20260506040430 | 69 | 240 | 2.0 | 4.0 | 0.00 | 0.14 | 0.14 | 98 | 1006.3 |
| 20260506040042 | 69 | 245 | 2.0 | 4.0 | 0.00 | 0.14 | 0.14 | 98 | 1005.5 |
| 20260506035939 | 69 | 212 | 2.0 | 4.0 | 0.00 | 0.14 | 0.14 | 98 | 1006.3 |
| 20260506035422 | 69 | 224 | 1.0 | 5.0 | 0.00 | 0.14 | 0.14 | 98 | 1006.1 |
| 20260506034934 | 69 | 192 | 2.0 | 6.0 | 0.00 | 0.14 | 0.14 | 98 | 1006.0 |
| 20260506034530 | 69 | 183 | 2.0 | 6.0 | 0.00 | 0.14 | 0.14 | 98 | 1004.9 |
| 20260506034425 | 69 | 221 | 2.0 | 6.0 | 0.00 | 0.14 | 0.14 | 98 | 1005.9 |
| 20260506033955 | 69 | 202 | 4.0 | 8.0 | 0.00 | 0.14 | 0.14 | 98 | 1005.8 |
| 20260506033438 | 69 | 238 | 3.0 | 8.0 | 0.00 | 0.14 | 0.14 | 98 | 1005.7 |
| 20260506033025 | 69 | 183 | 2.0 | 7.0 | 0.00 | 0.14 | 0.14 | 98 | 1004.7 |
| 20260506032928 | 69 | 236 | 2.0 | 6.0 | 0.00 | 0.14 | 0.14 | 98 | 1005.6 |
| 20260506032439 | 69 | 234 | 4.0 | 6.0 | 0.00 | 0.14 | 0.14 | 98 | 1005.7 |
| 20260506031922 | 69 | 240 | 3.0 | 6.0 | 0.00 | 0.14 | 0.14 | 98 | 1005.8 |
| 20260506031540 | 69 | 225 | 2.0 | 6.0 | 0.00 | 0.14 | 0.14 | 98 | 1004.9 |
| 20260506031432 | 69 | 249 | 2.0 | 6.0 | 0.00 | 0.14 | 0.14 | 98 | 1005.8 |
| 20260506030924 | 69 | 248 | 3.0 | 7.0 | 0.00 | 0.14 | 0.14 | 98 | 1005.6 |
| 20260506030449 | 69 | 233 | 3.0 | 7.0 | 0.00 | 0.14 | 0.14 | 98 | 1005.4 |
| 20260506030010 | 69 | 252 | 2.0 | 7.0 | 0.00 | 0.14 | 0.14 | 98 | 1004.8 |
| 20260506025930 | 69 | 243 | 3.0 | 7.0 | 0.00 | 0.14 | 0.14 | 98 | 1005.7 |
| 20260506025442 | 69 | 205 | 4.0 | 7.0 | 0.00 | 0.14 | 0.14 | 98 | 1005.7 |
| 20260506024924 | 69 | 230 | 2.0 | 3.0 | 0.00 | 0.14 | 0.14 | 98 | 1006.0 |
| 20260506024526 | 69 | 233 | 1.0 | 4.0 | 0.00 | 0.14 | 0.14 | 98 | 1005.3 |
| 20260506024434 | 69 | 236 | 2.0 | 4.0 | 0.00 | 0.14 | 0.14 | 98 | 1006.1 |
| 20260506023945 | 69 | 188 | 1.0 | 4.0 | 0.00 | 0.14 | 0.14 | 98 | 1006.0 |
| 20260506023428 | 69 | 193 | 1.0 | 3.0 | 0.00 | 0.14 | 0.14 | 98 | 1005.5 |
| 20260506023026 | 69 | 231 | 1.0 | 3.0 | 0.00 | 0.14 | 0.14 | 98 | 1004.7 |
| 20260506022957 | 69 | 233 | 1.0 | 3.0 | 0.00 | 0.14 | 0.14 | 98 | 1005.5 |
| 20260506022422 | 70 | 169 | 0.0 | 4.0 | 0.00 | 0.14 | 0.14 | 98 | 1005.7 |
| 20260506021934 | 69 | 181 | 1.0 | 4.0 | 0.00 | 0.14 | 0.14 | 98 | 1005.9 |
| 20260506021550 | 69 | 170 | 1.0 | 5.0 | 0.00 | 0.14 | 0.14 | 98 | 1004.8 |
| 20260506021503 | 69 | 242 | 1.0 | 5.0 | 0.00 | 0.14 | 0.14 | 98 | 1005.6 |
| 20260506020925 | 69 | 234 | 1.0 | 5.0 | 0.00 | 0.14 | 0.14 | 98 | 1005.8 |
| 20260506020437 | 69 | 209 | 1.0 | 4.0 | 0.00 | 0.14 | 0.14 | 98 | 1005.6 |
| 20260506020038 | 69 | 184 | 1.0 | 4.0 | 0.00 | 0.14 | 0.14 | 98 | 1004.8 |
| 20260506015947 | 69 | 218 | 2.0 | 4.0 | 0.00 | 0.14 | 0.14 | 98 | 1005.7 |
| 20260506015429 | 69 | 240 | 2.0 | 4.0 | 0.00 | 0.14 | 0.14 | 98 | 1005.8 |
| 20260506014936 | 69 | 189 | 2.0 | 4.0 | 0.00 | 0.14 | 0.14 | 98 | 1005.8 |
| 20260506014546 | 69 | 244 | 2.0 | 5.0 | 0.00 | 0.14 | 0.14 | 98 | 1004.8 |
| 20260506014446 | 69 | 230 | 2.0 | 5.0 | 0.00 | 0.14 | 0.14 | 98 | 1005.7 |
| 20260506013949 | 69 | 233 | 3.0 | 5.0 | 0.00 | 0.14 | 0.14 | 98 | 1005.5 |
| 20260506013440 | 69 | 247 | 2.0 | 4.0 | 0.00 | 0.14 | 0.14 | 98 | 1005.5 |
| 20260506013033 | 69 | 212 | 2.0 | 4.0 | 0.00 | 0.14 | 0.14 | 98 | 1004.6 |
| 20260506012929 | 69 | 207 | 2.0 | 4.0 | 0.00 | 0.14 | 0.14 | 98 | 1005.5 |
| 20260506012438 | 69 | 185 | 2.0 | 4.0 | 0.00 | 0.14 | 0.14 | 98 | 1005.5 |
| 20260506011947 | 69 | 238 | 2.0 | 4.0 | 0.00 | 0.14 | 0.14 | 98 | 1005.5 |
| 20260506011601 | 69 | 200 | 1.0 | 4.0 | 0.00 | 0.14 | 0.14 | 98 | 1004.6 |
| 20260506011457 | 69 | 221 | 2.0 | 5.0 | 0.00 | 0.14 | 0.14 | 98 | 1005.5 |
| 20260506010937 | 69 | 205 | 2.0 | 5.0 | 0.00 | 0.14 | 0.14 | 98 | 1005.4 |
| 20260506010430 | 69 | 184 | 1.0 | 4.0 | 0.00 | 0.14 | 0.14 | 98 | 1005.3 |
| 20260506010058 | 69 | 188 | 2.0 | 6.0 | 0.00 | 0.14 | 0.14 | 98 | 1004.3 |
| 20260506005931 | 69 | 198 | 2.0 | 6.0 | 0.00 | 0.14 | 0.14 | 98 | 1005.3 |
| 20260506005421 | 69 | 196 | 3.0 | 7.0 | 0.00 | 0.14 | 0.14 | 98 | 1005.0 |
| 20260506004932 | 69 | 250 | 3.0 | 7.0 | 0.00 | 0.14 | 0.14 | 98 | 1005.0 |
| 20260506004532 | 69 | 241 | 2.0 | 6.0 | 0.00 | 0.14 | 0.14 | 98 | 1004.1 |
| 20260506004438 | 69 | 233 | 2.0 | 6.0 | 0.00 | 0.14 | 0.14 | 98 | 1005.0 |
| 20260506003947 | 69 | 212 | 3.0 | 6.0 | 0.00 | 0.14 | 0.14 | 98 | 1005.0 |
| 20260506003429 | 69 | 243 | 2.0 | 4.0 | 0.00 | 0.14 | 0.14 | 98 | 1004.9 |
| 20260506003017 | 69 | 245 | 1.0 | 6.0 | 0.00 | 0.14 | 0.14 | 98 | 1004.0 |
| 20260506002939 | 69 | 245 | 2.0 | 6.0 | 0.00 | 0.14 | 0.14 | 98 | 1004.9 |
| 20260506002421 | 69 | 252 | 2.0 | 7.0 | 0.00 | 0.14 | 0.14 | 98 | 1004.5 |
| 20260506001933 | 69 | 220 | 2.0 | 7.0 | 0.00 | 0.14 | 0.14 | 98 | 1004.6 |
| 20260506001529 | 69 | 250 | 2.0 | 5.0 | 0.00 | 0.14 | 0.14 | 98 | 1004.0 |
| 20260506001422 | 70 | 237 | 2.0 | 5.0 | 0.00 | 0.14 | 0.14 | 98 | 1004.9 |
| 20260506000925 | 70 | 231 | 2.0 | 4.0 | 0.00 | 0.14 | 0.14 | 98 | 1005.0 |
| 20260506000456 | 70 | 208 | 1.0 | 4.0 | 0.00 | 0.14 | 0.14 | 98 | 1005.0 |
| 20260506000014 | 69 | 257 | 2.0 | 4.0 | 0.00 | 0.14 | 0.14 | 98 | 1004.2 |
| 20260505235925 | 70 | 229 | 2.0 | 4.0 | 0.00 | 0.14 | 0.14 | 98 | 1005.0 |
| 20260505235436 | 70 | 160 | 2.0 | 4.0 | 0.00 | 0.14 | 0.14 | 98 | 1005.2 |
| 20260505234940 | 69 | 220 | 2.0 | 4.0 | 0.00 | 0.14 | 0.14 | 98 | 1005.0 |
| 20260505234519 | 69 | 161 | 1.0 | 5.0 | 0.00 | 0.14 | 0.14 | 98 | 1004.0 |
| 20260505234428 | 69 | 167 | 1.0 | 5.0 | 0.00 | 0.14 | 0.14 | 98 | 1004.9 |
| 20260505234000 | 69 | 203 | 2.0 | 5.0 | 0.00 | 0.14 | 0.14 | 98 | 1004.8 |
| 20260505233431 | 69 | 228 | 2.0 | 6.0 | 0.00 | 0.14 | 0.14 | 98 | 1005.0 |
| 20260505233100 | 69 | 149 | 2.0 | 6.0 | 0.00 | 0.14 | 0.14 | 98 | 1003.8 |
| 20260505232928 | 69 | 184 | 2.0 | 6.0 | 0.00 | 0.14 | 0.14 | 98 | 1004.6 |
| 20260505232440 | 69 | 216 | 3.0 | 5.0 | 0.00 | 0.14 | 0.14 | 98 | 1004.7 |
| 20260505231931 | 69 | 231 | 2.0 | 4.0 | 0.00 | 0.14 | 0.14 | 98 | 1005.0 |
| 20260505231535 | 69 | 179 | 1.0 | 3.0 | 0.00 | 0.14 | 0.14 | 98 | 1004.1 |
| 20260505231440 | 69 | 238 | 1.0 | 3.0 | 0.00 | 0.14 | 0.14 | 98 | 1005.0 |
| 20260505230922 | 69 | 189 | 0.0 | 3.0 | 0.00 | 0.14 | 0.14 | 98 | 1005.2 |
| 20260505230435 | 69 | 199 | 1.0 | 3.0 | 0.00 | 0.14 | 0.14 | 98 | 1004.8 |
| 20260505230052 | 69 | 171 | 0.0 | 3.0 | 0.00 | 0.14 | 0.14 | 98 | 1003.9 |
| 20260505225945 | 69 | 198 | 1.0 | 3.0 | 0.00 | 0.14 | 0.14 | 98 | 1004.9 |
| 20260505225426 | 69 | 188 | 1.0 | 5.0 | 0.00 | 0.14 | 0.14 | 98 | 1005.0 |
| 20260505224938 | 69 | 158 | 2.0 | 5.0 | 0.00 | 0.14 | 0.14 | 98 | 1005.0 |
| 20260505224534 | 69 | 232 | 1.0 | 5.0 | 0.00 | 0.14 | 0.14 | 98 | 1004.0 |
| 20260505224429 | 69 | 250 | 2.0 | 5.0 | 0.00 | 0.14 | 0.14 | 98 | 1004.9 |
| 20260505223929 | 69 | 256 | 2.0 | 4.0 | 0.00 | 0.14 | 0.14 | 98 | 1004.9 |
| 20260505223441 | 69 | 246 | 3.0 | 4.0 | 0.00 | 0.14 | 0.14 | 98 | 1005.0 |
| 20260505223041 | 69 | 235 | 1.0 | 5.0 | 0.00 | 0.14 | 0.14 | 98 | 1004.1 |
| 20260505222922 | 69 | 220 | 1.0 | 5.0 | 0.00 | 0.14 | 0.14 | 98 | 1004.9 |
| 20260505222432 | 69 | 260 | 3.0 | 5.0 | 0.00 | 0.14 | 0.14 | 98 | 1004.9 |
| 20260505221924 | 69 | 245 | 2.0 | 7.0 | 0.00 | 0.14 | 0.14 | 98 | 1005.0 |
| 20260505221547 | 68 | 196 | 3.0 | 7.0 | 0.00 | 0.14 | 0.14 | 98 | 1004.2 |
| 20260505221454 | 69 | 249 | 3.0 | 7.0 | 0.00 | 0.14 | 0.14 | 98 | 1005.0 |
| 20260505220932 | 69 | 210 | 2.0 | 5.0 | 0.00 | 0.14 | 0.14 | 98 | 1004.8 |
| 20260505220423 | 69 | 231 | 2.0 | 5.0 | 0.00 | 0.14 | 0.14 | 98 | 1004.9 |
| 20260505220033 | 68 | 242 | 1.0 | 4.0 | 0.00 | 0.14 | 0.14 | 98 | 1004.1 |
| 20260505215933 | 68 | 178 | 2.0 | 4.0 | 0.00 | 0.14 | 0.14 | 98 | 1005.0 |
| 20260505215444 | 68 | 278 | 2.0 | 6.0 | 0.00 | 0.14 | 0.14 | 98 | 1005.1 |
| 20260505214926 | 68 | 212 | 2.0 | 6.0 | 0.00 | 0.14 | 0.14 | 98 | 1005.1 |
| 20260505214521 | 68 | 240 | 1.0 | 7.0 | 0.00 | 0.14 | 0.14 | 98 | 1004.4 |
| 20260505214436 | 68 | 230 | 2.0 | 7.0 | 0.00 | 0.14 | 0.14 | 98 | 1005.3 |
| 20260505213947 | 68 | 231 | 2.0 | 7.0 | 0.00 | 0.14 | 0.14 | 98 | 1005.4 |
| 20260505213429 | 68 | 184 | 1.0 | 4.0 | 0.00 | 0.14 | 0.14 | 98 | 1005.6 |
| 20260505213017 | 67 | 248 | 2.0 | 4.0 | 0.00 | 0.14 | 0.14 | 98 | 1004.7 |
| 20260505212939 | 68 | 248 | 2.0 | 4.0 | 0.00 | 0.14 | 0.14 | 98 | 1005.5 |
| 20260505212430 | 68 | 235 | 2.0 | 6.0 | 0.00 | 0.14 | 0.14 | 98 | 1005.4 |
| 20260505212000 | 68 | 235 | 3.0 | 6.0 | 0.00 | 0.14 | 0.14 | 98 | 1005.2 |
| 20260505211555 | 67 | 215 | 3.0 | 6.0 | 0.00 | 0.14 | 0.14 | 98 | 1004.2 |
| 20260505211439 | 68 | 257 | 3.0 | 6.0 | 0.00 | 0.14 | 0.14 | 98 | 1005.2 |
| 20260505210931 | 67 | 236 | 2.0 | 5.0 | 0.00 | 0.14 | 0.14 | 98 | 1005.6 |
| 20260505210443 | 67 | 224 | 3.0 | 5.0 | 0.00 | 0.14 | 0.14 | 98 | 1005.7 |
| 20260505210103 | 67 | 236 | 3.0 | 5.0 | 0.00 | 0.14 | 0.14 | 98 | 1004.7 |
| 20260505205943 | 67 | 248 | 3.0 | 5.0 | 0.00 | 0.14 | 0.14 | 98 | 1005.8 |
| 20260505205429 | 67 | 221 | 3.0 | 5.0 | 0.00 | 0.14 | 0.14 | 98 | 1005.8 |
| 20260505204941 | 67 | 243 | 3.0 | 6.0 | 0.00 | 0.14 | 0.14 | 98 | 1005.8 |
| 20260505204548 | 66 | 233 | 3.0 | 6.0 | 0.00 | 0.14 | 0.14 | 98 | 1004.9 |
| 20260505204421 | 67 | 195 | 3.0 | 5.0 | 0.00 | 0.14 | 0.14 | 98 | 1005.9 |
| 20260505203932 | 67 | 244 | 3.0 | 5.0 | 0.00 | 0.14 | 0.14 | 98 | 1006.0 |
| 20260505203445 | 67 | 238 | 3.0 | 4.0 | 0.00 | 0.14 | 0.14 | 98 | 1005.8 |
| 20260505203057 | 66 | 236 | 3.0 | 7.0 | 0.00 | 0.14 | 0.14 | 98 | 1005.0 |
| 20260505202926 | 67 | 237 | 3.0 | 7.0 | 0.00 | 0.14 | 0.14 | 98 | 1005.9 |
| 20260505202438 | 66 | 239 | 4.0 | 7.0 | 0.00 | 0.14 | 0.14 | 98 | 1005.8 |
| 20260505201949 | 66 | 246 | 3.0 | 7.0 | 0.00 | 0.14 | 0.14 | 98 | 1005.7 |
| 20260505201502 | 66 | 234 | 2.0 | 8.0 | 0.00 | 0.14 | 0.14 | 98 | 1004.6 |
| 20260505201431 | 66 | 209 | 3.0 | 8.0 | 0.00 | 0.14 | 0.14 | 98 | 1005.6 |
| 20260505200921 | 66 | 238 | 3.0 | 8.0 | 0.00 | 0.14 | 0.14 | 98 | 1005.4 |
| 20260505200433 | 66 | 238 | 4.0 | 9.0 | 0.00 | 0.14 | 0.14 | 98 | 1005.5 |
| 20260505200052 | 66 | 259 | 3.0 | 9.0 | 0.00 | 0.14 | 0.14 | 98 | 1004.6 |
| 20260505200003 | 66 | 245 | 4.0 | 9.0 | 0.00 | 0.14 | 0.14 | 98 | 1005.5 |
| 20260505195424 | 66 | 195 | 4.0 | 9.0 | 0.00 | 0.14 | 0.14 | 98 | 1005.6 |
| 20260505194936 | 66 | 264 | 4.0 | 7.0 | 0.00 | 0.14 | 0.14 | 98 | 1005.6 |
| 20260505194540 | 66 | 268 | 3.0 | 10.0 | 0.00 | 0.14 | 0.14 | 98 | 1004.8 |
| 20260505194446 | 66 | 200 | 3.0 | 10.0 | 0.00 | 0.14 | 0.14 | 98 | 1005.8 |
| 20260505193949 | 66 | 231 | 4.0 | 11.0 | 0.00 | 0.14 | 0.14 | 98 | 1005.9 |
| 20260505193436 | 66 | 240 | 4.0 | 11.0 | 0.00 | 0.14 | 0.14 | 98 | 1005.9 |
| 20260505193028 | 65 | 245 | 3.0 | 8.0 | 0.00 | 0.14 | 0.14 | 98 | 1005.0 |
| 20260505192925 | 66 | 255 | 3.0 | 7.0 | 0.00 | 0.14 | 0.14 | 98 | 1005.9 |
| 20260505192428 | 66 | 240 | 3.0 | 7.0 | 0.00 | 0.14 | 0.14 | 98 | 1005.9 |
| 20260505191939 | 66 | 238 | 4.0 | 7.0 | 0.00 | 0.14 | 0.14 | 98 | 1006.0 |
| 20260505191536 | 65 | 233 | 3.0 | 10.0 | 0.00 | 0.14 | 0.14 | 98 | 1005.0 |
| 20260505191431 | 65 | 250 | 4.0 | 10.0 | 0.00 | 0.14 | 0.14 | 98 | 1006.0 |
| 20260505190932 | 65 | 224 | 4.0 | 10.0 | 0.00 | 0.14 | 0.14 | 98 | 1005.9 |
| 20260505190423 | 65 | 235 | 4.0 | 8.0 | 0.00 | 0.14 | 0.14 | 98 | 1006.0 |
| 20260505190041 | 65 | 175 | 3.0 | 8.0 | 0.00 | 0.14 | 0.14 | 98 | 1005.0 |
| 20260505185947 | 65 | 223 | 3.0 | 8.0 | 0.00 | 0.14 | 0.14 | 98 | 1006.0 |
| 20260505185437 | 65 | 245 | 3.0 | 8.0 | 0.00 | 0.14 | 0.14 | 98 | 1006.0 |
| 20260505185007 | 65 | 214 | 4.0 | 8.0 | 0.00 | 0.14 | 0.14 | 98 | 1005.9 |
| 20260505184502 | 65 | 217 | 3.0 | 9.0 | 0.00 | 0.14 | 0.14 | 98 | 1004.9 |
| 20260505184429 | 65 | 217 | 4.0 | 9.0 | 0.00 | 0.14 | 0.14 | 98 | 1005.8 |
| 20260505183922 | 65 | 221 | 5.0 | 9.0 | 0.00 | 0.14 | 0.14 | 98 | 1005.9 |
| 20260505183423 | 65 | 207 | 4.0 | 9.0 | 0.00 | 0.14 | 0.14 | 98 | 1005.9 |
| 20260505183009 | 64 | 238 | 4.0 | 10.0 | 0.00 | 0.14 | 0.14 | 98 | 1005.0 |
| 20260505182933 | 65 | 240 | 4.0 | 10.0 | 0.00 | 0.14 | 0.14 | 98 | 1005.9 |
| 20260505182444 | 65 | 264 | 4.0 | 10.0 | 0.01 | 0.14 | 0.14 | 98 | 1006.0 |
| 20260505181935 | 65 | 196 | 5.0 | 9.0 | 0.01 | 0.14 | 0.14 | 98 | 1006.0 |
| 20260505181600 | 64 | 232 | 4.0 | 7.0 | 0.01 | 0.14 | 0.14 | 98 | 1005.2 |
| 20260505181431 | 65 | 197 | 4.0 | 8.0 | 0.01 | 0.14 | 0.14 | 98 | 1006.2 |
| 20260505180924 | 65 | 245 | 4.0 | 10.0 | 0.01 | 0.14 | 0.14 | 98 | 1006.2 |
| 20260505180427 | 65 | 212 | 5.0 | 10.0 | 0.01 | 0.14 | 0.14 | 98 | 1006.1 |
| 20260505180005 | 64 | 236 | 4.0 | 8.0 | 0.01 | 0.14 | 0.14 | 98 | 1005.2 |
| 20260505175937 | 65 | 250 | 4.0 | 8.0 | 0.01 | 0.14 | 0.14 | 98 | 1006.2 |
| 20260505175429 | 65 | 236 | 5.0 | 9.0 | 0.01 | 0.14 | 0.14 | 98 | 1006.4 |
| 20260505174932 | 65 | 205 | 4.0 | 10.0 | 0.01 | 0.14 | 0.14 | 98 | 1006.4 |
| 20260505174512 | 64 | 233 | 3.0 | 10.0 | 0.01 | 0.14 | 0.14 | 98 | 1005.5 |
| 20260505174457 | 64 | 234 | 4.0 | 10.0 | 0.01 | 0.14 | 0.14 | 98 | 1006.5 |
| 20260505173927 | 64 | 231 | 3.0 | 8.0 | 0.01 | 0.14 | 0.14 | 98 | 1006.5 |
| 20260505173439 | 64 | 248 | 5.0 | 9.0 | 0.01 | 0.14 | 0.14 | 98 | 1006.6 |
| 20260505173048 | 64 | 231 | 4.0 | 9.0 | 0.01 | 0.14 | 0.14 | 98 | 1005.7 |
| 20260505172949 | 64 | 226 | 4.0 | 9.0 | 0.01 | 0.14 | 0.14 | 98 | 1006.7 |
| 20260505172431 | 64 | 251 | 4.0 | 6.0 | 0.00 | 0.13 | 0.13 | 98 | 1006.6 |
| 20260505171923 | 64 | 243 | 2.0 | 7.0 | 0.00 | 0.13 | 0.13 | 98 | 1006.7 |
| 20260505171557 | 64 | 220 | 3.0 | 7.0 | 0.00 | 0.13 | 0.13 | 98 | 1005.8 |
| 20260505171425 | 64 | 261 | 4.0 | 7.0 | 0.00 | 0.13 | 0.13 | 98 | 1006.7 |
| 20260505170936 | 65 | 237 | 2.0 | 8.0 | 0.00 | 0.13 | 0.13 | 98 | 1006.8 |
| 20260505170448 | 64 | 182 | 4.0 | 8.0 | 0.00 | 0.13 | 0.13 | 98 | 1006.8 |
| 20260505170057 | 64 | 241 | 1.0 | 4.0 | 0.01 | 0.13 | 0.13 | 98 | 1005.9 |
| 20260505165937 | 64 | 237 | 2.0 | 4.0 | 0.01 | 0.13 | 0.13 | 98 | 1006.9 |
| 20260505165435 | 64 | 240 | 2.0 | 5.0 | 0.01 | 0.13 | 0.13 | 98 | 1007.0 |
| 20260505164926 | 64 | 246 | 3.0 | 5.0 | 0.01 | 0.13 | 0.13 | 98 | 1006.9 |
| 20260505164544 | 64 | 238 | 2.0 | 5.0 | 0.01 | 0.13 | 0.13 | 98 | 1006.0 |
| 20260505164428 | 64 | 236 | 2.0 | 5.0 | 0.01 | 0.13 | 0.13 | 98 | 1006.9 |
| 20260505163939 | 64 | 221 | 3.0 | 7.0 | 0.02 | 0.13 | 0.13 | 98 | 1006.9 |
| 20260505163451 | 64 | 237 | 3.0 | 9.0 | 0.02 | 0.13 | 0.13 | 98 | 1006.9 |
| 20260505163031 | 64 | 233 | 2.0 | 9.0 | 0.02 | 0.13 | 0.13 | 98 | 1005.8 |
| 20260505162941 | 64 | 241 | 3.0 | 9.0 | 0.02 | 0.13 | 0.13 | 98 | 1006.8 |
| 20260505162423 | 64 | 252 | 4.0 | 11.0 | 0.03 | 0.13 | 0.13 | 98 | 1006.9 |
| 20260505161935 | 64 | 236 | 3.0 | 9.0 | 0.03 | 0.13 | 0.13 | 98 | 1006.8 |
| 20260505161546 | 64 | 248 | 3.0 | 9.0 | 0.03 | 0.13 | 0.13 | 98 | 1005.9 |
| 20260505161446 | 64 | 238 | 4.0 | 9.0 | 0.03 | 0.13 | 0.13 | 98 | 1006.9 |
| 20260505160928 | 64 | 243 | 3.0 | 6.0 | 0.03 | 0.13 | 0.13 | 98 | 1007.0 |
| 20260505160440 | 64 | 235 | 4.0 | 8.0 | 0.03 | 0.12 | 0.12 | 98 | 1006.9 |
| 20260505153025 | 63 | 246 | 3.0 | 8.0 | 0.03 | 0.11 | 0.11 | 98 | 1006.1 |
| 20260505152932 | 64 | 219 | 3.0 | 8.0 | 0.03 | 0.11 | 0.11 | 97 | 1007.0 |
| 20260505152444 | 64 | 230 | 3.0 | 5.0 | 0.03 | 0.10 | 0.10 | 97 | 1007.1 |
| 20260505151936 | 64 | 244 | 3.0 | 6.0 | 0.03 | 0.10 | 0.10 | 97 | 1007.1 |
| 20260505151541 | 63 | 229 | 2.0 | 6.0 | 0.03 | 0.10 | 0.10 | 97 | 1006.2 |
| 20260505151446 | 64 | 226 | 3.0 | 6.0 | 0.03 | 0.10 | 0.10 | 97 | 1007.1 |
| 20260505150947 | 64 | 170 | 3.0 | 7.0 | 0.04 | 0.10 | 0.10 | 97 | 1007.2 |
| 20260505150438 | 64 | 228 | 3.0 | 7.0 | 0.03 | 0.09 | 0.09 | 97 | 1007.1 |
| 20260505140434 | 63 | 206 | 1.0 | 6.0 | 0.02 | 0.06 | 0.06 | 97 | 1007.4 |
| 20260505124932 | 63 | 229 | 2.0 | 7.0 | 0.03 | 0.03 | 0.03 | 96 | 1006.9 |
| 20260505124555 | 62 | 211 | 2.0 | 7.0 | 0.03 | 0.03 | 0.03 | 96 | 1005.9 |
| 20260505124429 | 63 | 232 | 3.0 | 7.0 | 0.03 | 0.03 | 0.03 | 96 | 1006.8 |
| 20260505124000 | 63 | 251 | 2.0 | 7.0 | 0.03 | 0.03 | 0.03 | 96 | 1006.9 |
| 20260505123430 | 63 | 220 | 3.0 | 6.0 | 0.03 | 0.03 | 0.03 | 96 | 1006.9 |
| 20260505123041 | 62 | 238 | 2.0 | 3.0 | 0.02 | 0.02 | 0.02 | 96 | 1006.0 |
| 20260505122940 | 63 | 240 | 2.0 | 3.0 | 0.02 | 0.02 | 0.02 | 96 | 1006.9 |
| 20260505122443 | 63 | 236 | 2.0 | 8.0 | 0.02 | 0.02 | 0.02 | 96 | 1006.9 |
| 20260505121933 | 63 | 249 | 3.0 | 8.0 | 0.02 | 0.02 | 0.02 | 96 | 1006.9 |
| 20260505121533 | 63 | 238 | 2.0 | 6.0 | 0.01 | 0.01 | 0.01 | 95 | 1005.9 |
| 20260505121443 | 63 | 239 | 2.0 | 6.0 | 0.01 | 0.01 | 0.01 | 95 | 1006.7 |
| 20260505120934 | 63 | 242 | 3.0 | 6.0 | 0.01 | 0.01 | 0.01 | 95 | 1006.7 |
| 20260505120433 | 63 | 248 | 2.0 | 6.0 | 0.01 | 0.01 | 0.01 | 95 | 1006.7 |
| 20260505120038 | 63 | 236 | 2.0 | 6.0 | 0.01 | 0.01 | 0.01 | 94 | 1005.7 |
| 20260505115922 | 63 | 251 | 2.0 | 6.0 | 0.01 | 0.01 | 0.01 | 94 | 1006.6 |
| 20260505115434 | 63 | 235 | 3.0 | 9.0 | 0.00 | 0.00 | 0.00 | 94 | 1006.5 |
| 20260505115006 | 64 | 250 | 4.0 | 9.0 | 0.00 | 0.00 | 0.00 | 93 | 1006.3 |
| 20260505114604 | 63 | 234 | 3.0 | 5.0 | 0.00 | 0.00 | 0.00 | 92 | 1005.3 |
| 20260505114427 | 64 | 216 | 3.0 | 5.0 | 0.00 | 0.00 | 0.00 | 92 | 1006.2 |
| 20260505113954 | 64 | 238 | 3.0 | 6.0 | 0.00 | 0.00 | 0.00 | 91 | 1006.2 |
| 20260505113425 | 65 | 236 | 3.0 | 12.0 | 0.00 | 0.00 | 0.00 | 90 | 1006.3 |
| 20260505113052 | 64 | 224 | 3.0 | 12.0 | 0.00 | 0.00 | 0.00 | 89 | 1005.4 |
| 20260505112926 | 65 | 242 | 3.0 | 12.0 | 0.00 | 0.00 | 0.00 | 88 | 1006.2 |
| 20260505112438 | 65 | 214 | 4.0 | 13.0 | 0.00 | 0.00 | 0.00 | 87 | 1005.9 |
| 20260505111930 | 66 | 257 | 6.0 | 13.0 | 0.00 | 0.00 | 0.00 | 86 | 1005.7 |
| 20260505111557 | 65 | 249 | 5.0 | 12.0 | 0.00 | 0.00 | 0.00 | 85 | 1004.7 |
| 20260505111430 | 66 | 219 | 4.0 | 12.0 | 0.00 | 0.00 | 0.00 | 85 | 1005.5 |
| 20260505110922 | 66 | 242 | 7.0 | 16.0 | 0.00 | 0.00 | 0.00 | 84 | 1005.3 |
| 20260505110432 | 66 | 242 | 8.0 | 16.0 | 0.00 | 0.00 | 0.00 | 84 | 1005.2 |